Theta_e
299 298 297 296 295 293 292 291 290 290 290 289 289 288 288 288 287 287 287 286 286 286 286 286 286 286 286 286 286 286 286 286 286 287 287 287 287 287 287 287 287 287 287 287 287 287 287 287 287 287 288 288 288 287 287 287 287 288 288 289 289 289 289 289 290 290 290 290 290 290 291 291 291 291 291 291 291 291 291 291 292 292 292 292 292 292
297 296 296 294 294 293 291 290 290 289 289 289 288 288 288 287 287 286 286 286 286 286 286 286 286 286 286 286 286 286 286 287 287 287 287 287 287 287 287 288 288 288 287 287 287 287 287 287 287 287 287 287 287 287 287 287 287 287 288 288 289 289 289 289 289 290 290 290 290 290 290 290 290 290 290 290 290 290 290 291 291 291 291 291 292 292
295 294 293 293 292 291 290 290 289 289 288 288 288 288 287 287 286 286 286 286 286 286 286 286 286 286 286 286 286 286 287 287 287 287 287 287 287 288 288 287 287 287 287 287 287 287 287 287 287 287 287 287 287 287 287 287 287 287 288 288 288 289 289 289 289 289 289 289 289 289 290 289 289 289 289 289 289 289 289 290 290 291 291 291 291 291
294 293 291 291 290 290 289 289 288 288 288 288 287 287 287 286 286 286 286 286 286 286 286 286 286 286 286 286 286 287 287 287 287 287 287 287 287 287 287 287 287 287 287 287 287 287 287 287 287 287 287 287 287 287 287 287 287 287 287 288 288 288 288 289 289 289 289 289 289 289 289 289 289 289 289 289 289 289 289 289 289 289 290 290 290 291
292 291 290 289 289 289 288 288 288 288 288 287 287 287 286 286 286 286 286 286 286 286 286 286 286 286 286 286 287 287 287 287 287 287 287 287 287 287 287 287 287 287 287 287 287 287 287 287 287 287 287 287 287 287 287 287 287 287 287 288 288 288 288 288 288 288 288 288 288 288 288 288 288 288 288 288 288 288 288 288 288 288 289 289 289 290
290 289 289 289 289 288 288 288 288 287 287 287 287 286 286 286 285 285 285 285 286 286 286 286 286 286 286 287 287 287 287 287 287 287 287 287 287 287 287 287 287 287 287 287 287 287 287 287 287 287 287 287 287 287 287 287 287 287 287 287 287 287 287 287 288 287 287 287 287 287 287 287 287 287 288 287 287 287 288 288 288 288 288 288 289 289
289 289 289 289 288 288 288 288 287 287 287 286 286 286 285 285 285 285 285 285 285 285 285 285 286 286 287 287 287 287 287 287 287 287 287 287 287 287 287 287 287 287 287 287 287 287 287 287 287 287 287 287 287 287 287 287 287 287 287 287 287 287 287 287 287 287 287 287 287 287 287 287 287 287 287 287 287 287 287 287 287 288 288 288 288 289
289 289 289 289 288 288 287 287 287 287 286 286 286 285 285 285 286 286 285 285 285 285 285 285 286 286 287 287 287 287 287 287 287 287 287 287 287 287 287 287 287 287 287 287 287 287 287 287 287 287 287 287 287 287 287 287 287 287 287 287 287 287 287 287 287 286 287 287 286 286 287 287 287 287 287 287 287 287 287 287 287 287 287 288 288 288
289 289 289 288 288 288 287 287 287 286 286 286 286 285 285 286 286 286 286 285 285 285 285 285 286 286 286 287 287 287 287 287 287 287 287 287 287 287 287 287 287 287 287 287 287 287 287 287 287 287 287 287 287 287 287 287 287 287 287 287 286 286 286 286 286 286 286 286 286 286 286 286 286 286 286 286 286 287 287 287 287 287 287 287 287 288
289 288 288 288 287 287 287 287 287 286 286 286 286 286 286 286 286 286 285 285 285 285 285 285 286 286 286 287 287 287 286 286 287 287 287 287 287 287 287 287 287 287 287 287 287 287 287 287 287 287 287 287 287 287 287 287 287 287 287 286 286 286 286 286 286 286 286 286 286 286 286 286 286 286 286 286 287 287 287 287 287 287 287 287 288 288
288 288 288 288 287 287 287 287 286 286 286 286 286 286 286 286 286 285 285 285 285 285 285 285 285 286 286 286 286 286 286 286 286 287 287 287 287 287 287 287 287 287 287 287 287 287 287 287 287 287 287 287 287 287 287 287 287 287 287 286 286 286 286 286 286 286 286 286 286 286 286 286 286 286 286 286 287 287 287 287 287 287 287 287 288 288
288 288 288 287 287 287 287 286 286 286 286 286 286 286 286 286 286 285 285 285 285 285 285 285 285 286 286 286 286 286 286 286 286 286 286 287 287 286 286 286 286 287 287 287 287 287 287 287 287 287 287 287 287 287 287 287 287 287 287 287 286 286 286 286 286 286 286 286 286 286 286 286 286 286 286 286 286 287 287 287 287 287 287 287 288 288
288 288 287 287 287 287 287 287 287 287 287 286 287 287 286 286 285 285 285 284 285 285 285 285 285 285 286 286 286 286 286 286 286 286 286 286 286 286 286 286 286 286 286 287 287 287 287 287 287 287 287 287 287 287 287 287 287 287 287 287 287 287 286 286 286 286 286 286 286 286 286 286 286 286 286 286 286 286 286 287 287 287 287 287 287 288
288 288 287 287 287 287 287 287 287 287 287 286 286 286 286 285 285 285 284 284 284 285 285 285 285 285 285 286 286 286 286 286 286 286 286 286 286 286 286 286 286 286 286 286 286 287 287 287 287 287 288 288 288 288 287 287 287 287 287 287 287 287 286 286 286 286 286 286 286 286 286 286 286 286 286 286 286 286 286 287 287 287 287 287 287 287
288 288 288 287 287 287 287 287 287 287 286 286 286 286 285 285 285 285 284 284 285 285 285 285 285 285 286 286 286 286 286 286 286 286 286 286 286 286 286 285 285 286 286 286 286 287 287 287 287 287 288 288 288 288 287 287 287 287 287 287 287 286 286 286 286 286 286 286 286 286 286 286 286 286 286 286 286 286 286 287 287 287 287 287 287 288
287 287 287 287 287 287 287 287 286 286 286 286 286 286 285 285 285 284 284 284 284 284 285 285 285 285 285 286 286 286 286 286 286 286 286 286 286 286 286 285 285 286 286 286 287 287 287 287 288 288 288 288 288 288 287 287 287 287 287 286 286 286 286 286 286 286 286 285 285 285 285 285 285 286 286 286 286 286 286 286 287 287 287 287 287 287
287 287 287 287 287 286 286 286 286 286 286 286 286 285 285 285 284 284 284 284 284 285 285 285 285 285 285 286 286 286 286 286 286 286 286 285 286 286 286 285 285 285 286 287 287 287 287 287 287 288 288 288 288 287 287 287 287 287 286 286 286 286 286 286 286 285 285 285 285 285 285 285 285 285 285 285 285 286 286 286 286 286 287 287 287 287
287 287 287 286 286 286 286 286 286 286 286 285 285 285 285 284 284 284 284 284 284 284 285 285 285 285 285 286 286 286 286 286 286 285 285 285 285 286 286 285 285 285 286 286 287 287 287 287 287 287 287 287 287 287 287 287 286 286 286 286 286 286 286 285 285 285 285 285 285 285 285 285 285 285 285 285 285 285 286 286 286 286 286 286 286 287
287 286 286 286 286 286 285 285 285 285 285 285 285 284 284 284 284 284 284 284 284 285 285 285 285 285 285 285 285 286 286 285 285 285 285 285 285 285 285 285 285 285 286 286 286 286 286 286 287 287 287 287 287 287 287 287 286 286 286 286 286 286 286 285 285 285 285 285 285 285 285 285 285 285 285 285 285 285 285 286 286 286 286 286 286 286
286 286 286 286 285 285 285 285 285 285 285 285 284 284 284 284 284 284 284 285 285 285 285 285 285 285 285 285 285 285 285 285 285 284 284 284 285 285 285 285 285 285 285 286 286 286 286 286 286 287 287 287 287 287 287 287 287 286 286 286 286 286 286 286 285 285 285 285 285 285 285 285 285 285 285 285 285 285 285 285 285 286 286 286 286 286
286 286 286 285 285 285 285 285 284 284 284 284 284 284 284 284 284 285 285 285 285 285 285 285 285 285 285 285 285 285 285 285 284 284 284 284 285 285 285 285 285 285 285 285 286 286 286 286 286 286 286 287 287 287 287 287 287 287 287 286 286 286 286 286 286 286 285 285 285 285 285 285 285 285 285 285 285 285 285 285 285 285 286 286 286 286
285 285 285 285 285 284 284 284 284 283 283 284 284 284 285 285 285 285 285 285 285 285 285 285 285 285 285 285 285 285 285 284 284 284 284 284 285 285 285 285 284 284 285 285 285 285 285 285 286 286 286 286 287 287 287 287 287 287 287 287 286 286 286 286 286 286 286 285 285 285 285 285 285 285 285 285 285 285 285 285 285 285 285 286 286 286
285 285 284 284 284 284 283 283 283 283 284 284 285 286 286 286 286 285 285 285 285 285 284 284 284 284 284 285 285 285 285 284 284 284 284 284 284 285 285 284 284 284 284 285 285 285 285 285 286 286 286 286 286 287 287 287 287 287 287 287 287 287 286 286 286 286 286 286 285 285 285 285 285 285 285 285 285 285 285 285 285 285 285 285 285 285
284 284 284 284 283 283 283 283 283 284 285 286 286 287 286 286 286 285 285 285 284 284 284 284 284 284 285 285 285 285 285 284 284 284 284 284 284 284 284 284 284 284 285 285 285 285 285 285 285 286 286 286 287 287 287 287 287 287 287 287 287 287 287 287 286 286 286 286 285 285 285 285 285 285 285 285 285 285 285 285 285 285 285 285 285 285
283 283 283 283 283 283 283 283 283 284 286 287 287 287 286 285 285 285 284 284 284 284 284 284 284 284 285 285 285 285 285 284 284 284 284 284 284 284 284 284 284 284 285 285 285 285 285 285 285 286 286 286 287 287 287 287 287 287 287 287 287 287 287 287 287 286 286 286 286 286 285 285 285 285 285 285 285 285 284 285 285 285 285 285 285 285
283 283 282 282 282 282 283 283 283 284 285 286 286 286 285 285 285 285 285 284 284 284 284 284 284 284 284 285 284 284 284 284 284 284 284 284 284 284 284 284 284 284 284 285 285 285 285 285 285 286 286 286 287 287 287 287 287 287 287 287 287 287 287 287 287 287 287 286 286 286 286 285 285 285 285 285 285 285 285 285 285 285 285 285 285 285
282 282 282 282 282 282 283 283 283 284 284 285 285 285 285 285 284 284 284 284 284 284 284 284 284 284 284 284 284 284 284 284 284 284 284 284 284 284 284 284 284 284 284 284 285 285 285 285 286 286 286 286 286 287 287 287 287 287 287 287 287 287 287 287 287 287 287 287 286 286 286 286 285 285 285 285 285 285 285 285 285 285 285 285 285 285
282 282 282 282 282 282 282 283 283 283 284 284 284 284 284 284 284 284 284 284 284 284 284 284 284 284 284 284 284 285 285 285 285 284 284 283 283 284 284 284 284 284 284 284 284 284 284 285 285 285 285 286 286 286 286 286 287 287 287 287 287 287 287 287 287 287 287 287 286 286 286 286 285 285 285 285 285 285 285 285 285 284 284 285 285 285
282 282 282 282 282 282 283 283 283 284 284 284 284 284 284 284 284 284 285 285 284 284 284 284 284 284 284 284 285 285 285 285 285 284 284 283 284 284 284 284 284 283 283 283 284 284 284 285 285 285 285 285 285 286 286 287 287 287 287 287 287 287 287 287 287 287 287 286 286 286 286 286 285 285 285 285 285 285 285 285 284 284 284 284 284 284
282 282 282 282 282 283 283 283 284 284 284 285 285 285 285 285 285 285 285 285 284 284 284 284 284 284 284 284 284 284 285 285 285 284 284 284 284 284 284 284 284 283 283 283 283 283 284 285 285 285 285 285 285 286 286 286 287 287 287 287 287 287 287 287 287 286 286 286 286 286 286 286 286 285 285 285 285 285 285 285 284 284 284 284 284 284
283 283 283 283 283 284 284 284 285 285 285 285 285 285 285 285 285 285 285 285 285 285 284 284 284 284 284 283 283 283 284 285 285 284 284 284 284 284 284 284 283 283 283 282 282 282 283 284 285 285 285 285 285 286 286 286 286 286 287 287 287 287 287 287 286 286 286 286 286 286 286 286 286 286 285 285 285 285 285 285 284 284 284 284 284 284
283 284 284 285 285 285 285 285 286 286 286 286 286 286 286 285 285 285 285 285 285 285 285 284 284 284 284 283 283 283 284 285 286 285 284 284 283 283 283 283 283 283 282 282 282 282 282 283 284 285 285 285 285 285 286 286 286 286 286 286 286 286 286 286 286 286 286 286 286 286 286 286 286 286 286 286 285 285 285 285 285 284 284 284 284 284
284 284 285 285 285 285 286 286 286 286 286 286 286 286 285 285 285 285 285 286 285 285 285 284 284 284 284 284 284 285 285 286 286 285 284 283 283 283 283 283 283 282 282 282 281 281 282 282 283 284 284 284 285 285 285 286 286 286 286 286 286 286 286 286 286 286 286 286 286 286 286 286 286 286 286 286 286 285 285 285 285 285 284 284 284 284
284 284 285 285 285 285 286 286 286 286 286 286 286 285 285 285 285 286 286 286 286 285 285 285 284 284 284 284 285 285 286 286 286 285 284 283 283 283 283 283 282 282 282 282 281 281 282 282 282 282 283 284 285 285 285 286 286 286 286 285 285 285 285 285 285 285 285 285 286 286 286 286 286 286 286 286 286 285 285 285 285 285 284 284 284 284
284 285 285 285 285 286 286 286 286 285 285 285 285 285 285 285 286 286 286 286 286 286 286 286 285 285 285 285 285 286 286 286 286 285 284 284 283 283 283 283 282 282 282 281 281 281 281 282 282 282 283 283 284 285 286 286 285 285 285 285 285 285 285 285 285 285 285 285 285 285 285 285 285 285 285 285 285 285 285 285 285 285 285 284 284 284
285 285 285 286 286 286 286 286 285 285 285 285 285 285 285 286 286 286 286 286 286 286 286 286 286 286 286 285 286 286 286 287 286 286 285 284 284 283 283 283 283 282 282 281 281 281 281 282 282 282 282 283 283 284 285 285 285 285 285 285 285 285 285 285 285 285 285 285 285 285 285 285 285 285 285 285 285 285 285 285 285 285 285 285 285 284
285 285 286 286 286 286 286 286 285 285 285 285 286 286 286 286 286 286 286 286 286 286 286 286 286 286 286 286 286 286 287 287 287 286 286 285 284 283 283 283 283 282 282 282 281 281 281 281 282 282 282 282 283 283 284 285 285 285 285 285 285 285 285 285 285 285 284 285 285 285 285 285 285 285 285 285 285 285 285 285 285 285 285 285 285 285
285 286 286 286 286 286 286 286 286 286 286 286 286 286 286 286 286 286 286 286 286 286 286 286 286 286 286 286 286 286 287 287 287 287 286 285 285 284 283 283 283 283 283 282 282 281 281 281 281 282 282 282 283 283 283 284 284 284 285 285 285 285 285 285 285 284 284 284 284 284 284 285 285 285 285 285 285 285 285 285 285 285 285 285 285 285
286 286 286 286 286 286 286 286 286 286 286 286 286 286 286 286 286 286 286 286 286 286 286 286 286 286 286 286 286 287 287 287 287 287 286 286 285 285 284 284 284 284 283 283 282 282 281 281 281 281 282 282 282 283 283 283 283 284 284 284 285 285 285 285 285 284 284 284 284 284 285 285 284 284 284 284 284 284 284 284 285 285 285 285 285 285
286 286 286 286 286 286 286 286 286 286 286 286 286 286 286 286 286 286 286 286 286 286 286 286 286 286 286 286 287 287 287 287 287 287 287 286 286 285 284 284 284 284 283 283 282 282 282 281 281 281 282 282 282 282 282 283 283 283 283 283 284 285 285 285 285 285 285 284 284 284 285 284 284 284 284 284 284 284 284 284 284 284 284 284 284 284
286 286 286 286 286 286 286 286 286 286 286 286 286 286 286 286 286 286 286 286 286 286 286 286 286 286 287 287 287 287 287 287 287 287 286 286 286 285 285 284 284 284 283 283 282 282 282 282 282 282 282 282 282 282 282 282 283 283 283 283 283 284 285 285 285 285 285 285 284 284 284 284 284 284 284 284 285 285 285 285 284 284 284 284 284 284
286 286 286 286 286 286 286 286 286 286 286 286 286 286 286 286 286 286 286 286 286 286 286 286 286 287 287 287 287 287 287 286 286 286 286 286 286 285 285 284 284 283 283 283 282 282 282 282 282 282 282 282 282 282 282 282 283 283 283 283 283 284 284 284 285 285 285 284 284 284 284 284 285 285 285 285 285 285 285 285 285 285 285 285 285 285
286 286 286 286 286 286 286 286 286 286 286 286 286 286 286 286 286 286 286 287 287 287 286 286 286 287 287 287 287 287 286 286 286 285 285 285 285 285 284 284 283 283 282 282 282 282 282 282 282 282 282 282 282 282 282 282 282 283 283 283 283 283 283 284 285 285 285 284 284 285 285 285 285 285 285 285 285 285 285 285 285 285 285 285 285 285
286 286 286 285 285 286 286 286 286 286 286 286 286 286 286 286 286 286 286 286 287 287 286 286 286 287 287 287 287 286 286 286 285 285 285 285 285 284 284 284 283 283 282 282 282 282 282 282 282 282 282 282 282 282 282 282 282 283 283 284 284 283 284 284 284 284 284 284 284 285 285 285 285 285 285 285 285 285 285 285 285 285 285 285 285 285
286 286 285 285 285 286 286 286 286 286 286 286 287 286 286 286 286 286 286 286 286 286 286 286 286 286 286 286 286 286 286 286 285 285 285 285 285 284 284 283 283 283 282 282 282 282 282 282 283 283 283 282 282 282 282 282 283 283 284 284 284 284 284 284 284 284 284 284 285 285 285 285 285 285 285 285 285 285 285 285 285 285 285 285 285 285
286 286 286 285 286 286 286 286 286 286 287 287 287 286 286 286 286 286 286 286 286 287 286 286 286 285 285 286 286 286 286 286 285 285 285 285 284 284 284 283 283 283 283 282 282 282 282 283 283 283 282 282 282 282 283 283 283 283 284 284 284 284 284 284 284 284 284 285 285 285 285 285 285 285 285 285 285 285 285 285 285 285 285 285 285 285
286 286 286 286 286 286 286 286 286 286 287 287 286 286 286 285 285 285 286 286 286 286 286 286 285 285 285 286 286 285 285 285 285 285 285 285 284 284 284 283 283 283 283 282 282 282 282 283 283 283 283 283 283 283 283 283 283 283 284 284 284 284 284 284 284 285 285 285 285 285 285 285 285 285 285 285 285 285 285 285 285 286 286 286 286 286
286 286 286 286 286 286 286 286 286 286 286 286 286 286 285 285 285 285 286 286 286 286 286 285 285 285 285 285 285 285 285 285 285 285 285 285 285 284 284 283 283 283 283 283 283 282 282 283 283 283 283 283 283 283 284 284 284 284 284 284 284 284 284 285 285 285 285 285 285 285 286 285 286 286 286 286 286 286 286 286 286 286 286 286 286 286
286 286 286 286 285 285 285 286 286 286 285 285 286 286 285 285 285 285 285 285 285 285 285 284 284 284 284 284 285 284 284 284 284 285 285 285 284 284 284 284 283 283 283 283 283 283 283 283 283 283 283 283 284 284 284 284 284 284 284 284 285 285 285 285 285 285 285 286 286 286 286 286 286 286 286 286 286 286 286 286 286 286 286 286 286 286
286 285 286 285 285 285 285 285 285 285 285 285 285 285 285 285 285 285 285 285 285 285 284 284 284 283 284 284 284 284 284 284 284 284 285 285 284 284 283 283 283 283 283 283 283 283 283 283 283 284 284 284 284 284 284 284 284 284 285 285 285 285 285 285 286 286 286 286 286 286 286 286 286 286 286 286 286 286 286 286 286 286 287 286 286 286
285 285 285 285 285 285 285 285 285 285 285 285 285 285 285 285 285 285 285 285 284 284 284 284 283 283 283 283 284 284 283 283 283 284 284 285 284 283 283 283 283 282 282 282 283 283 283 283 283 284 284 284 284 284 284 285 285 285 285 285 285 285 285 286 286 286 286 286 286 286 286 286 286 286 286 286 286 286 286 286 286 287 287 287 287 287
Wind_Speed
17 17 18 17 17 17 19 20 21 23 25 26 28 29 29 30 31 31 31 30 30 29 28 27 27 26 26 26 25 25 24 24 24 23 23 23 23 23 23 23 23 23 23 23 23 23 24 24 24 24 24 24 24 24 24 24 24 24 24 24 24 24 24 24 24 25 25 25 25 25 26 26 27 27 28 28 28 28 28 28 29 29 29 29 29 29
17 17 17 17 17 18 19 20 21 24 26 28 28 29 29 30 30 31 31 30 29 28 27 26 25 25 25 25 24 23 23 23 22 22 22 22 22 22 22 22 22 23 23 23 23 23 23 23 23 23 23 23 22 22 22 22 22 23 23 23 23 23 24 24 25 25 25 25 26 26 27 27 28 28 29 29 29 29 29 29 29 29 29 29 29 29
16 16 17 17 18 19 20 21 22 24 26 27 28 29 29 29 30 30 30 29 28 26 25 25 24 24 24 23 23 22 22 21 21 21 21 21 21 22 22 22 22 23 23 23 22 22 22 22 22 22 22 22 21 21 21 21 21 22 22 23 23 24 24 25 25 25 26 26 26 27 27 27 28 28 28 29 29 29 29 29 29 29 29 29 30 30
16 15 15 17 18 20 21 22 24 25 27 28 28 28 29 29 29 29 29 28 27 25 24 23 23 22 22 22 22 21 21 20 20 20 21 21 21 21 22 22 22 22 21 21 21 21 21 21 21 21 21 21 21 21 21 21 21 22 22 23 23 24 25 25 25 26 26 26 26 27 27 27 28 28 28 29 29 30 30 30 30 30 30 30 30 30
15 15 16 17 18 20 21 23 24 26 27 28 28 28 28 28 28 28 28 27 26 25 24 22 21 21 20 20 20 20 20 19 19 20 20 20 21 21 21 20 20 20 19 19 19 19 19 19 19 20 20 20 21 21 21 21 21 22 23 23 24 25 25 25 26 26 26 27 27 27 28 28 29 29 30 30 31 31 32 32 32 32 31 31 30 30
14 15 17 18 20 21 22 24 25 26 27 27 27 26 26 26 26 26 26 25 25 24 23 22 21 20 19 19 19 19 19 19 19 19 19 19 19 19 18 18 18 17 17 17 17 17 17 18 18 18 19 19 20 20 20 20 21 22 23 24 24 25 26 26 27 27 27 28 29 29 29 30 31 31 31 32 32 33 33 33 33 33 32 31 31 30
14 16 18 20 22 23 23 24 24 25 25 25 25 25 25 24 24 23 23 23 23 23 23 23 21 20 19 18 19 19 19 19 19 19 18 18 17 16 16 16 16 16 16 16 16 16 16 16 17 17 17 18 18 19 19 19 20 21 22 23 24 25 26 26 27 27 28 28 29 29 30 30 31 31 31 32 32 32 33 33 33 33 32 31 30 30
16 17 19 21 22 23 22 22 22 22 22 23 23 23 24 23 22 21 21 21 21 22 22 22 21 20 19 19 19 20 20 20 19 18 17 16 15 15 15 15 15 15 15 15 15 15 15 15 16 16 17 17 17 18 18 19 20 21 22 22 23 24 25 25 26 26 27 27 28 28 29 29 30 30 30 31 31 31 32 32 32 32 31 31 30 29
18 20 21 21 21 20 21 21 21 21 20 21 21 22 22 21 20 19 19 19 19 20 20 21 21 20 19 19 20 20 20 20 19 18 18 17 16 16 16 16 16 15 15 15 15 14 15 15 15 16 16 17 17 18 18 19 20 21 21 22 23 24 24 25 25 26 27 27 28 28 29 29 30 30 30 30 31 31 31 31 31 31 30 30 29 29
20 21 21 20 19 19 19 20 20 20 20 20 20 20 19 18 17 17 17 17 18 19 19 20 20 20 20 20 20 20 20 20 19 19 19 18 18 18 18 18 17 17 16 16 15 15 15 15 15 15 16 16 17 17 18 19 20 21 22 22 23 24 25 25 26 27 27 28 28 29 29 29 30 30 30 30 30 30 30 29 29 29 29 29 28 28
19 19 18 17 17 18 19 19 19 19 19 18 18 17 16 14 14 15 16 18 19 20 20 19 19 20 21 21 20 19 20 20 20 20 20 20 20 20 20 20 20 20 19 18 18 17 16 16 16 16 16 16 17 18 18 19 20 21 22 22 23 24 25 26 26 27 27 28 28 29 29 29 29 29 29 29 29 29 28 28 28 28 28 28 28 28
17 17 16 16 17 17 18 17 16 15 15 14 14 13 11 11 12 15 17 19 20 20 20 19 19 19 20 21 20 19 19 19 19 19 20 20 20 21 21 22 22 22 22 21 20 19 18 18 17 17 16 17 17 18 19 19 20 21 22 23 23 24 25 25 26 26 27 27 27 28 28 28 28 28 28 28 28 28 27 27 28 28 28 29 29 29
15 15 15 16 16 15 14 13 12 11 11 11 11 11 11 12 14 16 17 18 19 19 19 19 19 20 20 19 19 18 17 17 17 18 18 19 20 21 22 22 23 24 24 23 22 21 19 19 18 18 17 17 18 19 19 20 21 22 22 23 23 24 25 25 26 26 26 26 27 27 27 27 27 27 27 27 27 27 27 28 28 28 29 29 29 29
12 13 13 13 13 12 11 10 10 10 11 11 11 12 13 14 15 16 16 16 17 17 17 18 19 19 19 18 17 16 16 16 17 17 18 19 20 22 23 23 24 25 25 24 23 21 20 20 20 19 19 19 20 20 21 21 22 23 23 23 24 24 24 25 25 25 25 25 26 26 26 26 26 26 27 27 27 27 27 28 28 29 29 29 29 29
11 11 11 11 11 10 10 10 11 12 12 12 13 13 13 14 14 15 15 16 16 16 16 17 18 19 18 17 16 15 15 15 16 17 18 20 21 23 24 24 25 25 25 24 24 22 21 21 21 22 21 21 21 22 22 23 23 23 23 23 23 23 23 23 23 24 24 24 24 25 25 25 25 26 26 26 26 27 27 28 28 28 29 29 29 29
11 11 11 11 11 11 11 12 12 12 13 13 13 13 13 13 13 14 15 15 15 15 16 16 17 18 18 17 15 14 14 15 16 17 20 21 24 25 24 24 25 25 25 24 24 23 23 23 23 23 23 23 23 23 23 23 22 22 22 22 22 22 22 22 22 22 22 22 23 23 24 24 24 25 26 26 27 27 28 28 28 28 29 29 29 29
11 11 11 12 13 13 12 13 13 12 12 12 12 12 13 13 13 14 14 15 15 15 15 16 17 18 18 17 16 15 14 15 17 19 21 24 25 26 25 25 25 26 25 25 24 24 24 24 25 25 25 24 24 23 22 22 21 21 21 20 20 20 20 20 20 20 21 21 22 22 23 23 24 25 26 26 27 27 28 28 28 29 29 29 29 29
11 11 12 13 14 14 13 13 13 12 12 12 13 13 13 14 14 14 14 15 15 16 17 18 18 18 18 18 18 17 17 17 18 21 23 26 27 26 25 24 24 25 25 25 25 24 25 26 26 26 26 25 24 23 22 21 21 20 20 19 19 20 20 20 20 20 20 21 21 22 23 23 24 25 26 27 27 28 28 28 29 29 29 29 29 29
12 13 13 14 14 13 13 13 12 12 12 12 13 14 14 14 14 14 14 15 16 17 18 18 18 19 19 20 20 20 19 19 20 21 23 27 28 27 24 23 23 23 25 25 25 24 25 26 27 27 27 26 25 24 22 21 20 19 19 19 19 20 20 20 21 21 21 21 22 22 23 23 24 25 26 26 27 28 28 29 29 29 29 29 30 30
14 13 13 13 13 13 13 13 12 12 13 14 14 15 14 14 14 14 15 17 18 18 19 19 20 20 21 22 22 22 21 21 22 23 24 27 28 26 23 22 22 23 24 24 24 24 25 26 27 28 27 27 26 24 23 21 20 19 19 19 20 20 21 21 21 21 21 22 22 22 22 23 23 24 25 26 27 27 28 28 29 29 29 30 30 30
15 14 13 13 13 13 14 14 15 15 15 15 15 15 14 14 15 15 17 18 18 19 19 20 21 21 22 22 23 24 24 24 23 23 24 26 26 25 23 21 21 22 24 24 24 25 25 26 27 28 28 27 26 25 23 22 20 20 20 20 20 20 21 21 21 21 21 21 22 22 22 22 23 23 24 24 25 26 27 27 28 29 29 29 30 30
16 15 15 15 15 16 17 18 18 16 15 14 13 13 14 15 16 17 18 19 19 19 19 20 22 23 24 26 27 27 26 24 22 22 23 25 26 25 23 20 20 21 23 24 24 25 25 26 27 28 28 27 26 25 23 22 21 21 20 21 21 21 21 21 21 21 21 21 21 22 22 22 22 23 23 24 25 26 26 27 28 29 29 30 30 31
18 18 18 17 17 18 19 19 17 14 12 11 12 14 15 16 16 17 18 19 19 20 22 24 25 27 28 28 28 27 24 21 20 19 20 22 24 24 22 20 20 21 22 24 24 25 26 27 28 29 28 27 26 25 24 23 22 22 22 22 21 21 20 20 20 20 20 20 21 22 22 23 23 24 25 26 26 27 27 28 29 29 30 31 31 32
17 18 19 19 19 19 19 18 15 12 11 12 13 14 15 15 16 17 18 20 22 23 25 26 27 28 28 27 26 23 21 18 16 17 18 21 23 23 21 20 20 21 23 24 24 25 26 27 28 28 28 27 26 25 24 23 23 23 23 23 22 21 21 20 20 20 20 20 21 21 22 23 23 24 25 26 26 27 28 29 29 30 30 30 31 31
17 18 18 18 19 19 18 16 13 11 12 13 15 15 16 17 18 20 22 24 25 26 26 26 26 26 26 24 22 20 19 17 16 17 18 20 22 22 21 20 20 22 24 25 25 25 26 27 28 28 28 27 26 25 24 24 24 25 25 24 24 23 22 21 21 20 20 20 20 20 21 21 22 22 23 23 24 25 26 26 27 28 28 29 30 30
19 20 20 20 20 19 17 15 13 13 14 16 18 19 20 21 22 24 25 26 25 25 23 23 24 24 24 23 22 20 19 18 17 17 18 19 21 22 21 21 21 22 24 26 26 25 26 28 29 29 28 27 26 25 25 26 26 26 26 26 25 24 24 23 22 21 21 20 20 20 20 20 20 20 21 21 22 23 23 24 25 25 26 27 28 29
19 20 20 20 19 17 16 16 15 15 16 17 18 20 21 23 24 25 26 25 23 22 21 21 23 24 24 24 22 21 20 19 18 17 17 18 20 21 22 22 22 23 25 26 27 27 28 29 30 29 28 27 26 27 27 28 28 28 28 27 26 26 25 24 23 23 22 22 22 21 21 21 20 20 20 21 21 22 22 22 23 24 25 26 27 28
19 20 20 20 19 18 18 17 16 15 15 16 17 19 21 22 24 24 24 23 21 21 21 22 22 23 23 23 23 22 22 21 19 16 15 16 18 20 22 22 23 23 25 26 28 29 29 29 28 28 27 26 26 27 28 29 29 29 28 28 27 27 26 26 25 25 25 24 24 23 23 22 21 21 20 21 21 21 21 22 23 23 24 25 26 27
19 20 20 19 19 19 18 17 16 16 16 17 18 19 20 21 22 23 22 22 21 21 22 22 23 22 22 23 24 25 23 20 15 12 12 15 18 21 22 22 23 23 24 26 28 29 28 27 25 24 24 25 26 27 29 29 30 29 29 29 28 28 28 28 27 27 27 26 26 25 24 23 22 21 21 20 20 20 21 21 21 22 23 24 26 27
16 16 16 16 16 16 16 16 16 16 16 17 17 18 18 19 20 21 21 21 21 21 22 22 22 22 22 23 23 23 21 16 11 10 13 16 19 22 23 23 23 23 24 25 27 27 28 27 25 23 23 24 26 28 29 30 30 30 30 30 30 29 29 29 29 29 28 28 27 26 25 24 22 21 21 20 20 19 19 19 19 20 22 24 25 27
11 10 10 11 12 13 13 14 14 14 15 15 16 17 18 19 19 20 20 20 20 21 21 22 22 22 21 21 20 19 17 14 12 13 15 18 21 23 24 24 24 24 23 22 23 25 26 27 26 24 24 26 28 29 30 30 30 30 30 30 30 31 30 30 30 30 29 29 28 27 26 24 23 22 21 20 19 19 18 18 18 19 20 23 25 26
10 9 8 9 9 10 11 12 13 14 15 16 17 17 18 19 19 19 20 20 20 20 21 21 21 21 21 20 20 20 20 18 16 16 17 20 22 24 24 24 24 24 23 22 21 22 23 25 28 30 28 28 29 29 30 29 29 30 30 30 31 31 31 31 30 30 30 30 29 28 26 25 24 23 22 21 20 19 18 17 17 17 19 21 23 25
10 10 10 10 11 11 12 13 14 15 16 17 17 18 19 19 19 19 20 20 20 20 20 21 21 21 21 21 22 22 22 20 18 17 18 20 22 24 24 24 25 25 25 23 22 22 23 27 30 32 31 30 29 29 30 30 29 29 29 30 31 32 32 32 31 31 31 30 29 28 27 27 26 25 24 22 21 20 19 18 17 17 18 20 22 23
10 10 10 11 12 12 13 14 15 16 17 17 18 18 19 19 19 19 19 20 20 20 20 20 20 21 21 21 22 22 21 20 18 17 18 20 22 24 25 25 25 26 25 24 23 23 25 26 28 29 30 31 31 30 30 29 29 29 29 29 30 31 32 32 32 31 31 30 30 29 29 28 28 27 26 24 23 22 21 20 19 18 18 19 21 22
10 10 11 11 12 13 14 15 16 17 17 18 18 18 19 19 19 19 19 20 20 20 20 20 20 20 20 20 21 22 21 20 19 18 19 20 22 23 25 25 25 25 25 25 24 24 25 25 26 28 30 31 32 31 30 28 28 28 29 29 30 31 31 32 31 31 31 30 30 30 29 29 29 28 27 26 25 24 23 21 20 20 19 19 20 21
10 10 11 12 13 14 14 15 16 17 18 18 18 18 19 19 19 19 19 20 20 20 21 21 20 20 20 19 20 20 21 20 20 20 20 20 21 22 24 25 24 24 25 25 26 26 26 27 28 28 29 30 31 32 30 29 28 28 29 30 31 31 32 31 31 30 30 30 30 30 29 29 29 29 28 28 26 25 24 23 22 21 20 20 20 20
10 11 12 13 13 14 15 15 16 17 18 18 18 18 19 19 19 19 19 20 20 20 20 20 20 20 19 19 19 20 20 20 21 20 20 19 20 21 22 24 23 23 24 25 26 27 28 28 29 29 28 29 29 29 30 31 31 31 32 32 32 32 32 31 31 30 29 29 30 30 30 29 29 29 29 28 27 27 26 25 24 23 22 21 21 21
11 11 12 13 14 14 15 16 16 17 18 18 18 18 19 19 19 19 19 19 19 19 19 19 19 19 19 19 19 20 20 21 21 20 19 19 19 20 21 23 23 23 23 24 25 26 27 28 29 29 29 30 29 29 31 32 33 33 33 33 33 32 32 31 30 29 29 29 29 30 30 30 29 29 29 28 28 27 27 26 25 25 24 24 23 23
11 11 12 13 14 14 15 16 16 17 17 18 18 18 18 18 18 18 18 18 18 17 17 18 18 18 18 18 19 20 21 21 21 20 20 19 19 20 20 22 23 23 23 23 23 25 26 28 29 30 30 31 32 33 33 33 34 34 35 35 34 33 32 31 30 29 29 29 30 30 30 30 29 29 28 28 28 28 28 28 27 26 26 26 26 25
11 11 12 13 14 14 15 16 16 17 17 17 18 18 17 17 17 17 16 16 16 16 16 16 17 17 18 19 19 20 21 21 21 21 21 21 21 21 21 22 23 23 23 23 23 24 26 28 29 30 30 32 33 34 34 35 35 34 34 34 34 34 33 32 31 31 31 30 30 30 30 30 29 29 28 28 28 28 28 29 28 28 27 26 26 27
11 11 12 13 14 15 15 16 16 17 17 17 17 16 16 16 16 15 15 15 15 15 15 16 17 18 19 20 20 21 21 22 22 22 22 22 21 21 22 22 23 23 23 24 25 25 26 28 29 30 31 32 33 34 34 35 34 33 32 33 34 35 35 34 33 32 31 30 30 29 29 29 29 29 28 28 28 29 29 29 29 29 28 28 27 27
11 12 13 13 14 15 15 16 16 16 16 16 15 15 15 15 14 14 14 14 14 14 14 15 17 18 19 20 21 22 22 22 22 22 22 22 22 22 22 23 23 23 24 25 26 27 27 28 29 30 31 32 32 33 33 34 34 33 33 33 34 35 36 35 33 31 30 30 29 29 29 30 30 30 29 30 30 30 31 31 30 30 30 30 29 29
11 12 13 14 14 15 15 15 15 15 15 14 14 14 14 13 13 13 13 13 13 14 14 15 17 18 20 22 22 23 23 23 23 22 22 22 22 22 22 23 23 24 24 25 26 28 28 28 29 30 31 31 32 32 33 34 35 35 34 33 33 33 34 34 34 32 31 31 31 31 31 31 31 31 31 31 32 32 32 32 32 32 32 31 31 31
12 12 13 14 15 15 15 15 15 15 14 14 13 13 13 12 12 12 12 13 14 14 15 16 18 20 21 23 24 24 24 24 23 22 22 21 21 21 22 23 23 24 24 25 26 28 29 30 30 30 30 30 31 32 33 34 35 35 34 33 32 32 33 34 34 34 33 33 33 32 32 32 32 32 33 33 33 33 33 33 33 34 33 33 32 32
12 13 14 14 15 15 15 15 15 14 14 14 13 13 12 12 12 12 13 14 15 15 16 18 19 21 23 24 25 25 25 25 24 23 22 22 21 21 21 22 23 23 24 25 26 27 28 30 31 31 30 30 31 33 34 34 35 35 35 34 33 33 34 34 34 33 33 33 33 33 32 32 33 33 34 34 34 34 34 34 34 34 34 34 33 33
13 14 14 15 15 15 15 15 15 14 14 14 13 13 13 13 13 14 14 15 16 17 18 19 20 22 23 24 25 26 26 26 26 24 23 22 22 21 21 21 22 22 23 25 26 27 28 29 30 30 31 31 32 33 33 33 33 34 34 34 33 33 33 34 33 33 33 33 33 34 34 33 33 33 34 35 35 35 35 35 34 34 34 34 33 33
13 14 14 15 15 15 15 15 15 15 14 14 14 14 14 14 14 15 16 16 17 18 19 20 21 22 23 24 25 25 26 27 27 26 25 24 23 23 22 22 22 23 23 24 26 26 27 28 28 29 30 31 32 33 33 32 32 32 33 33 33 33 33 34 34 33 33 33 34 34 35 34 33 33 35 36 36 36 36 35 34 33 33 33 33 33
14 14 15 15 15 15 15 15 15 15 15 15 15 15 15 15 16 16 17 17 18 19 20 21 21 22 23 24 25 25 25 26 27 27 27 26 26 25 24 24 23 24 24 25 25 26 26 27 27 27 27 29 31 32 32 31 31 31 31 32 32 33 33 34 34 34 33 33 34 35 35 35 35 35 37 37 37 36 35 34 34 33 32 32 32 32
14 15 15 15 16 16 16 16 16 16 16 16 16 16 16 16 17 17 17 18 19 19 20 21 22 23 24 24 25 25 25 25 26 27 27 27 27 27 26 26 26 26 26 26 26 26 26 27 26 26 25 25 27 29 31 31 30 30 30 30 31 32 33 34 33 33 32 33 33 34 35 35 35 36 36 36 36 36 36 35 34 33 32 31 30 30
14 15 15 16 16 16 16 16 17 17 17 17 17 17 17 18 18 18 18 18 19 20 20 21 22 23 24 24 25 25 25 25 26 27 28 27 27 28 28 28 28 28 28 27 27 26 26 26 26 25 24 23 23 25 28 30 30 30 29 29 29 30 31 32 32 32 32 32 33 35 35 35 35 35 35 34 35 36 37 36 34 32 31 29 29 28
14 15 16 16 16 17 17 17 17 18 18 18 18 18 18 18 18 18 18 19 19 20 21 21 22 23 23 24 25 25 25 26 27 28 28 28 28 28 28 28 28 28 29 28 27 26 26 25 25 25 24 22 21 21 23 26 28 29 29 28 29 29 30 31 32 32 33 34 34 35 35 35 34 34 33 33 34 35 35 35 33 32 30 29 28 28
Wind_Direction
272 276 280 283 288 294 297 298 298 297 296 295 295 295 296 297 299 299 300 301 301 301 301 300 299 298 297 297 296 295 294 292 291 290 289 289 289 289 288 288 288 288 288 288 287 287 287 287 287 286 285 283 282 281 280 279 279 279 280 280 280 279 279 279 279 278 278 277 276 275 274 273 271 270 270 270 270 271 271 272 272 272 272 272 272 272
279 282 285 288 292 296 298 297 295 294 294 294 295 296 298 299 300 300 301 301 302 302 301 300 299 298 296 296 295 294 293 291 290 289 288 288 288 288 288 288 288 288 288 288 287 287 287 286 285 285 284 284 282 281 279 279 278 279 279 280 280 279 279 279 279 278 277 276 275 274 274 273 272 272 271 271 271 271 272 272 272 272 273 272 272 272
287 290 292 295 296 298 298 296 293 292 292 293 295 298 299 300 301 301 301 302 302 302 301 300 299 298 296 295 295 294 292 291 289 289 289 288 289 289 289 289 289 289 289 288 288 287 286 285 284 283 283 282 280 279 278 277 277 277 277 278 278 278 278 278 277 277 276 275 275 274 274 273 273 273 273 273 272 272 272 273 272 272 272 272 272 272
290 293 293 296 297 296 296 294 293 292 293 295 297 299 301 302 302 302 303 303 303 303 302 301 300 298 297 296 295 293 292 291 290 290 290 290 290 290 290 290 289 289 288 288 287 286 285 283 282 281 281 279 278 277 276 275 274 273 274 276 276 277 276 276 276 276 275 275 275 274 274 274 274 273 274 274 273 273 273 272 271 271 271 272 272 272
292 292 292 293 293 292 293 293 293 294 296 297 299 301 303 303 304 304 305 305 305 305 304 303 302 300 298 296 295 294 293 292 291 291 291 291 290 290 289 288 287 286 285 285 284 283 282 281 280 279 278 277 277 276 275 273 272 272 271 273 274 275 275 275 275 275 275 274 273 273 273 273 272 272 273 273 273 272 272 271 270 270 271 272 272 272
292 291 291 290 290 290 292 292 293 295 297 299 301 303 304 304 305 306 306 307 307 307 307 307 306 303 301 299 297 296 295 295 294 293 292 291 289 288 286 285 284 283 283 283 282 282 281 280 279 278 277 277 278 278 276 275 274 273 271 271 272 272 272 272 272 273 272 272 272 272 272 272 272 272 273 273 273 272 272 272 271 271 272 272 273 273
291 289 289 290 291 293 293 294 295 296 299 301 303 305 305 305 306 306 306 306 308 309 310 311 310 308 305 303 302 301 301 300 300 299 297 295 292 290 288 287 287 286 286 286 286 285 284 283 282 281 281 282 282 282 281 280 278 277 275 273 273 272 272 272 272 273 273 273 274 274 275 275 276 276 276 276 276 276 275 275 274 273 273 273 274 274
288 287 288 290 293 294 294 294 295 297 299 302 303 304 304 305 305 306 306 307 308 309 310 312 312 311 310 308 307 307 307 308 308 307 306 304 302 300 298 297 296 294 293 293 293 292 291 290 289 288 287 287 286 286 285 283 282 280 279 278 277 276 276 276 277 277 278 279 280 280 280 280 281 281 280 280 280 279 278 278 277 277 276 275 275 274
286 285 287 289 291 292 293 293 294 296 298 300 301 302 303 305 307 308 308 307 308 308 309 310 311 311 311 310 310 311 312 313 314 315 315 315 313 312 309 307 305 302 300 299 299 299 298 296 294 292 291 290 289 287 286 284 283 282 280 280 279 280 280 280 281 281 282 282 282 282 282 282 282 282 282 281 281 281 280 280 280 280 279 277 275 274
285 286 288 289 289 289 291 293 294 297 299 300 300 301 304 306 308 308 307 306 305 306 308 308 310 311 311 312 313 315 316 317 318 318 319 319 319 319 317 316 314 311 309 307 307 306 305 303 300 297 294 292 290 289 287 285 284 283 282 282 281 281 281 281 282 282 282 282 282 282 282 282 281 281 281 281 281 281 281 281 281 281 279 278 276 275
286 287 288 289 289 290 292 295 297 300 302 303 304 306 310 308 306 304 303 302 304 305 307 308 309 311 313 314 316 319 321 320 319 319 319 320 321 322 321 320 319 317 316 314 314 313 311 308 305 301 298 295 293 291 289 288 286 285 284 284 283 283 282 282 282 282 281 281 281 281 281 280 280 280 280 280 280 280 280 280 279 278 277 276 275 274
285 286 287 288 290 292 295 299 302 303 303 303 305 305 302 299 297 298 299 300 302 305 307 309 309 311 313 315 318 320 321 318 316 316 316 317 318 319 318 317 316 316 316 315 315 315 314 311 308 304 301 298 295 293 291 290 289 288 287 286 285 285 284 283 282 281 281 280 280 279 279 278 278 278 278 279 279 279 278 277 276 275 274 274 273 273
285 287 289 292 294 296 298 298 298 296 295 295 295 294 292 292 294 296 298 299 301 304 307 308 309 310 313 317 319 318 316 312 310 309 310 311 312 313 313 312 311 312 314 315 316 316 315 312 309 306 304 300 298 296 294 293 292 291 290 289 288 287 285 284 283 282 280 280 279 278 277 277 277 277 278 279 279 278 277 276 275 274 273 273 272 272
285 288 291 293 294 294 294 291 289 288 287 287 289 290 292 293 295 297 298 297 299 302 305 305 306 308 312 317 318 316 311 307 305 305 305 306 308 310 310 309 309 312 314 314 315 316 317 315 312 310 307 304 301 300 299 297 296 295 293 292 291 289 287 286 284 282 281 279 278 277 276 276 276 276 277 278 277 277 276 276 275 275 274 273 273 272
284 287 286 286 286 287 286 286 285 285 286 288 290 291 292 293 294 295 295 295 296 300 303 303 304 306 309 313 315 315 310 305 303 303 302 303 306 309 309 308 308 311 313 313 314 315 317 316 314 312 310 308 306 305 304 302 301 299 298 296 294 292 290 288 285 283 281 279 278 277 276 275 275 276 277 277 277 276 275 275 275 274 274 274 273 273
282 281 280 281 282 282 282 284 285 286 288 289 290 291 291 291 291 292 292 293 296 299 302 303 304 305 306 311 315 315 310 305 302 301 302 301 306 310 311 308 307 308 312 314 315 316 318 317 316 314 313 312 311 310 309 307 306 305 303 300 298 296 293 291 288 285 283 281 279 278 277 276 276 276 276 276 275 274 274 273 273 273 272 272 272 272
280 278 277 279 281 282 283 285 285 286 287 287 287 287 287 287 288 289 290 292 296 298 300 302 304 304 305 308 311 313 311 306 302 300 301 301 305 310 312 308 306 308 312 314 316 317 318 318 317 316 315 315 315 315 314 313 312 310 308 306 304 301 298 295 293 290 287 285 282 281 279 278 277 277 276 276 275 274 273 273 272 270 270 270 270 270
278 277 278 280 281 282 282 283 284 284 284 284 285 285 283 283 285 288 290 292 295 297 299 301 300 299 300 301 304 307 310 305 302 300 300 301 305 310 313 310 307 308 311 314 315 317 317 317 317 317 317 318 319 319 319 319 318 316 314 312 309 306 304 301 298 296 293 290 287 284 282 280 278 277 276 275 275 275 274 274 272 271 270 269 268 267
278 278 279 281 281 281 281 282 282 282 282 283 284 284 284 285 288 291 292 293 295 296 297 296 294 293 294 295 300 304 305 302 300 299 299 300 305 311 314 311 308 307 310 312 314 315 315 315 315 316 317 319 321 322 323 323 322 321 319 316 313 310 307 305 302 299 296 292 289 286 283 281 278 276 275 275 274 274 273 273 272 271 270 269 268 267
280 279 278 280 281 280 279 278 278 278 279 280 282 284 285 288 291 292 293 296 297 296 296 293 291 290 292 294 298 301 301 300 298 298 298 300 306 311 314 311 308 308 309 310 311 313 312 312 313 315 317 320 322 323 324 324 324 323 321 318 315 312 309 307 304 301 297 294 291 288 284 282 279 277 275 274 273 272 272 271 271 271 270 270 269 268
278 277 276 276 276 276 275 275 276 277 280 283 285 287 289 291 293 295 295 297 297 296 294 292 290 290 291 293 295 297 299 299 297 297 299 302 306 311 314 310 307 305 306 308 310 311 311 310 311 313 316 318 321 322 324 324 324 324 322 319 317 314 311 308 305 302 299 296 292 289 286 283 281 279 277 276 274 273 273 272 272 272 272 271 270 269
274 274 274 273 272 273 274 275 278 283 289 294 296 297 298 298 298 298 298 297 295 293 290 287 287 288 290 291 294 297 300 300 298 297 299 300 304 309 313 310 305 303 303 305 308 310 309 308 309 311 314 317 320 322 323 324 325 324 323 321 318 315 312 309 307 304 301 298 295 292 289 287 285 283 281 280 278 276 274 273 273 272 272 271 270 268
272 272 273 273 273 274 276 280 286 294 304 308 306 304 303 303 301 299 297 294 291 288 287 287 289 291 293 294 297 301 303 303 301 298 296 295 298 304 309 306 303 301 300 303 306 308 307 307 308 310 312 316 318 321 322 323 324 325 324 323 321 318 315 312 310 307 305 302 298 295 292 290 287 284 281 279 277 275 273 271 270 270 270 269 268 267
273 274 275 276 277 279 282 287 295 305 312 308 303 300 299 297 294 291 287 285 285 286 287 289 291 293 295 297 299 302 304 301 297 292 290 290 293 298 303 303 302 300 300 303 305 305 305 306 307 308 310 314 317 320 322 324 325 326 325 325 323 322 319 317 314 311 308 305 301 298 294 290 286 283 279 277 274 273 271 269 269 268 268 268 268 267
275 275 275 277 279 282 285 288 291 293 289 285 282 281 282 282 281 280 280 282 284 287 289 290 291 292 296 298 300 300 301 298 293 290 289 290 293 297 301 302 301 300 301 304 306 305 304 304 306 307 309 313 317 320 323 325 326 326 326 326 325 324 322 320 317 314 311 308 304 300 297 293 289 285 282 279 276 274 272 271 270 270 270 270 270 269
278 278 277 278 280 281 280 278 271 262 255 257 261 266 271 274 277 279 281 284 286 288 289 289 289 292 295 297 297 297 299 298 295 292 291 291 293 296 301 302 302 302 303 305 306 304 302 303 305 309 312 316 320 323 325 326 326 326 325 325 325 324 322 321 319 317 315 312 309 306 303 299 296 292 289 285 281 279 276 275 273 273 272 272 272 271
284 283 282 281 280 278 276 275 270 261 253 252 255 261 268 273 277 280 283 285 287 288 287 285 286 290 294 295 296 297 298 298 296 294 293 292 291 294 300 305 305 304 303 304 304 303 301 303 306 311 315 319 322 323 323 323 323 323 323 323 324 323 323 323 322 321 319 317 315 313 310 308 304 301 296 292 288 285 282 280 278 276 275 275 274 273
286 285 284 282 281 279 279 279 277 273 268 264 264 265 269 273 278 282 285 287 288 286 283 282 283 287 291 292 295 297 298 300 301 300 296 292 289 291 300 305 305 303 302 303 303 304 304 305 308 312 315 317 318 318 318 319 319 321 322 324 324 325 325 325 325 324 323 321 319 318 316 313 310 306 302 298 295 291 287 284 282 279 277 276 274 273
284 283 282 281 280 279 279 278 277 275 272 270 270 270 273 277 281 284 287 289 288 284 282 282 283 285 288 291 295 298 301 306 308 306 298 291 290 294 302 305 304 303 304 304 305 306 306 306 307 309 310 311 312 312 314 317 319 322 324 325 326 326 326 326 325 324 323 322 321 320 318 316 314 310 306 303 299 295 291 287 284 281 278 276 274 272
282 279 275 273 272 272 271 270 270 270 270 272 274 276 280 283 286 288 290 290 286 282 281 282 283 285 287 291 294 298 302 308 307 299 296 294 296 300 305 305 305 304 304 305 306 307 306 307 308 307 306 307 308 310 314 317 321 323 324 325 326 326 326 325 324 324 323 322 321 320 319 318 315 313 309 306 302 298 294 291 287 283 280 277 275 274
288 280 271 266 264 264 264 266 269 272 276 279 282 285 287 288 289 290 290 289 286 283 282 283 283 284 285 286 288 289 292 297 296 295 299 301 302 303 306 306 305 305 304 303 302 303 304 306 308 308 307 306 308 311 315 317 320 321 322 323 323 323 324 324 323 322 321 321 320 320 319 318 317 315 312 309 306 302 299 295 291 286 282 279 277 275
297 292 285 279 276 275 276 279 282 285 287 289 290 290 291 291 291 290 289 288 287 284 283 283 283 284 283 282 280 281 286 294 300 303 306 305 304 305 306 305 304 304 304 300 297 295 296 299 304 307 308 307 308 311 314 316 318 319 319 319 319 320 321 321 319 318 319 319 320 319 319 319 318 317 315 313 310 307 304 300 296 291 285 281 279 277
298 295 294 292 292 292 292 293 294 294 294 294 294 294 293 292 291 290 289 288 286 285 283 282 282 282 282 281 281 284 290 299 307 311 310 306 303 303 305 304 302 302 303 301 296 291 289 293 299 304 307 308 308 309 312 314 316 317 318 316 316 317 318 318 317 316 317 318 319 319 320 320 320 319 318 316 314 312 310 307 303 297 291 286 283 281
297 297 297 297 297 298 298 298 298 298 297 297 296 295 294 293 292 291 289 288 286 284 282 280 280 279 280 281 283 288 295 303 310 311 308 303 302 302 305 304 303 302 303 301 298 294 292 293 296 300 303 306 307 308 310 312 315 316 316 314 313 313 314 315 314 314 315 316 317 318 319 320 320 320 319 318 317 316 314 311 308 303 297 291 287 285
297 297 298 299 299 299 299 299 299 299 298 298 297 296 295 294 293 291 290 287 285 283 282 280 279 278 278 280 283 289 297 305 309 309 307 304 304 306 306 305 305 304 302 300 298 296 294 294 295 297 299 302 305 307 309 311 312 313 313 312 311 310 311 312 312 312 313 314 315 316 317 318 318 318 317 317 317 317 315 313 311 307 302 296 290 285
298 298 299 299 299 299 298 298 298 298 297 296 296 295 295 294 293 291 289 287 285 283 282 281 279 278 278 280 284 290 298 306 309 309 309 309 309 308 306 306 306 305 302 300 298 296 295 295 297 297 297 298 300 304 308 310 310 310 310 311 311 311 311 311 311 311 312 312 313 314 315 315 315 314 314 315 316 316 315 313 311 309 306 301 295 289
297 297 298 298 297 297 297 297 296 295 295 295 295 294 294 294 292 291 289 287 285 284 283 282 281 280 280 282 287 293 300 305 309 312 313 313 311 309 307 308 309 307 302 299 298 298 296 295 296 297 295 294 295 298 303 307 309 309 309 311 311 311 312 312 313 312 311 310 310 311 312 312 312 311 312 313 314 314 313 313 313 312 310 307 303 297
294 294 295 296 296 296 296 295 295 295 295 295 295 295 295 294 292 291 289 287 286 285 284 283 283 283 284 287 291 296 301 305 309 312 315 315 313 312 310 311 312 311 308 303 300 298 296 293 292 293 294 294 294 296 299 303 305 307 309 312 313 312 312 314 314 312 310 308 308 309 310 310 310 310 310 311 312 312 311 311 312 313 312 310 307 303
292 293 294 295 296 296 296 296 296 296 297 297 297 297 296 295 293 291 290 289 287 287 286 286 286 287 289 292 296 299 303 306 309 312 315 316 316 316 315 314 314 314 314 310 305 300 295 291 289 289 291 292 294 297 300 301 302 305 309 312 314 315 315 315 313 311 308 307 307 308 309 311 311 310 309 310 309 308 307 307 308 309 308 306 304 302
292 293 295 297 298 299 299 299 299 300 300 300 300 299 298 297 295 294 293 292 291 291 290 290 292 293 295 298 300 303 306 309 311 314 316 318 319 320 318 316 316 317 317 313 308 303 297 293 291 290 289 290 292 295 299 300 302 305 306 307 308 311 315 315 313 311 310 309 309 309 310 311 310 309 307 306 305 304 303 304 304 304 304 301 298 297
294 296 298 300 302 302 302 302 302 303 303 303 303 302 302 301 300 299 298 297 297 297 297 297 299 300 302 303 305 308 310 312 315 316 318 320 321 321 320 317 317 317 316 313 310 305 300 296 295 294 293 293 294 295 297 299 301 303 302 301 303 307 312 313 313 312 312 311 310 309 309 308 307 306 305 303 302 302 302 302 302 301 301 299 296 293
298 300 302 304 305 304 304 305 305 305 305 306 307 307 306 304 303 302 302 302 303 303 303 304 304 305 305 306 309 311 314 316 318 319 320 322 323 323 321 319 318 317 315 312 309 306 303 300 298 296 295 295 295 295 295 298 301 302 301 300 302 306 309 311 312 312 310 309 308 308 307 306 305 305 305 304 304 304 304 302 301 300 299 298 296 294
302 304 306 307 306 306 306 307 307 308 309 309 309 308 307 307 307 306 306 307 307 307 307 307 307 308 310 312 313 315 317 318 319 320 321 322 323 323 321 320 319 317 314 310 306 305 305 303 300 297 298 298 296 294 293 296 299 301 302 303 303 302 301 305 310 311 309 307 307 307 307 307 308 308 307 306 305 304 304 303 302 301 300 298 296 295
305 307 308 308 307 307 308 308 308 309 309 309 309 309 309 310 310 310 311 311 310 310 310 310 310 312 314 316 317 318 319 319 320 321 322 322 322 322 321 320 319 317 313 308 304 303 305 303 301 300 301 299 296 294 294 295 297 300 303 305 304 300 297 301 306 308 308 308 308 309 309 310 310 309 307 305 303 302 302 301 301 300 300 299 297 295
307 309 309 308 308 308 308 308 308 307 308 308 308 309 310 311 312 312 312 312 312 313 313 313 314 315 315 316 318 320 320 321 321 321 323 323 323 322 320 318 316 314 310 306 304 303 302 301 302 304 305 301 297 294 294 295 297 301 304 306 306 303 302 304 305 305 305 306 307 308 309 310 309 306 303 302 301 300 300 299 299 299 299 299 298 296
309 309 309 308 308 308 309 308 307 307 308 309 310 311 312 313 313 313 312 313 313 314 314 314 315 316 315 316 319 321 322 323 323 323 323 324 323 322 320 317 314 310 307 305 305 304 302 302 303 305 305 303 299 296 295 296 297 299 302 305 306 305 304 304 304 304 304 304 305 307 310 310 307 303 300 300 300 300 300 299 297 297 297 297 297 296
307 307 307 308 308 308 308 307 308 309 311 312 313 313 314 315 315 314 314 314 314 315 315 316 317 316 315 317 319 321 322 322 323 324 325 325 324 323 321 318 314 311 308 306 305 305 304 305 307 307 304 300 297 297 299 299 299 299 301 304 304 303 302 302 304 305 305 304 305 307 310 309 305 301 301 301 301 300 299 298 298 297 297 297 296 296
306 306 306 307 308 308 308 309 310 312 314 315 315 315 316 316 316 316 315 315 315 316 317 318 318 317 316 318 321 322 322 321 323 324 325 326 326 325 323 320 316 313 311 309 308 307 307 308 309 308 304 300 296 296 299 301 301 300 301 302 302 301 301 302 304 305 305 305 305 307 308 306 303 302 302 302 301 300 299 298 298 297 297 296 295 295
308 307 308 308 309 310 311 311 313 315 316 317 317 316 316 316 317 316 316 316 316 317 318 318 317 316 317 318 321 324 323 321 322 323 324 325 326 326 324 321 319 316 314 313 312 311 311 311 310 308 305 302 298 298 299 301 302 302 301 300 300 300 300 302 304 304 304 304 304 305 305 304 303 303 303 301 299 298 298 298 298 297 297 297 296 295
309 309 309 310 311 312 313 315 316 317 318 318 318 317 316 316 316 316 316 316 317 317 318 318 317 316 316 317 320 322 321 321 321 322 324 325 325 325 323 322 320 318 316 315 314 313 312 311 310 308 307 304 300 298 298 300 301 301 298 297 297 298 299 300 302 302 303 303 303 304 304 303 303 303 302 299 298 298 299 299 298 298 298 298 297 295
307 309 310 312 313 315 316 317 317 317 317 317 317 316 316 316 316 316 316 316 316 317 317 318 318 316 315 317 319 320 319 320 319 321 323 324 324 323 322 321 320 317 315 313 312 311 310 309 307 307 307 306 303 299 297 297 298 298 295 295 296 298 298 299 301 302 303 303 303 303 303 303 302 301 300 298 297 297 298 298 298 299 299 299 297 295